Airport Information

KYKM - Yakima Air Terminal McAllister Field Airport

KYKM 082153Z VRB05KT 10SM SCT090 28/09 A3001 RMK AO2 SLP155 T02830094


  • General Information

  • Coordinates: N 46°34'5"/ W 120°32'38"
  • Location: N/A
  • Surveyed Elevation: 1095 MSL

Operations

Flow Name Active Runways Conditions

Green background denotes normal operations.


Common Frequencies

Callsign Frequency Position Name

More at the Document Center


Charts


Flights